"Pseudo-MPEC" for P11OiVE

Created 2023 Nov 30 6:22:03 UT using Find_Orb

Click here for an explanation of pseudo-MPECs

 
 Astrometry: 
     P11OiVE* C2023 11 18))\EWb(Og5Rb#AstrometryBKS$QC]!+\\AeT#)ga3$,Df4MS#%oF51
     P11OiVE  C2023 11 18Z!u3YLWq'bSct(4Rf9yywFhJTk)Iredacted;L^x_rJi+XBH9q+'F51
     P11OiVE  C2023 11 18#q)pJcoGd]K).AUF@nDea*C*R6U7X.!NX?wY)5^GlhMmbA1-,s7*F51
     P11OiVE 7C2023 11 19WCtf[8DC:LVY#58tcV@click+)3H%yUeLFo]CDIX\GherePMXcPGZ84
     P11OiVE 7C2023 11 19%iuBy(])P\+'.+QkNun-W;cbhAKsh+bdM;ZUR=+njvbuM.$H1YtAZ84
     P11OiVE 7C2023 11 19`oGY]Ru!Yk55CStlSeB;:I#K)*xW^L'rd3m?l^U'\.V(aAJV[s4TZ84
     P11OiVE KC2023 11 21D:](8;bPgiH+pKo.PD4,LO'v_cIs=Gfor3TexplanationP%o80]474
     P11OiVE KC2023 11 21(XB^(mS7s^5-Db6L8vibo`c]:9b0RrG4+CLg7ZX0nrbV.hH*WdTq474
     P11OiVE KC2023 11 21N72gSvswae@4RWn1BfY:(5q7a(oP,fq9Es9`^3tkEBVgb5[E$7p;474
     P11OiVE KC2023 11 29.12935902 09 08.402-17 14 38.11   ~BT3b 21.95GVNEOCPI52
     P11OiVE KC2023 11 29.13218902 09 07.304-17 14 41.57   ~BT3b 20.33GVNEOCPI52

Station data:
(474) Mount John Observatory, Lake Tekapo  (S43.987385 E170.464960)  New
   Zealand.  Observers A. C. Gilmore, P. M. Kilmartin. Measurer P. M.
   Kilmartin. 1.0-m f/7.7 reflector + CCD.
(F51) Pan-STARRS 1, Haleakala  (N20.707234 W156.255910)  US/Hawaii.
   Observers J. Bulger, T. Lowe, A. Schultz, M. Willman. Measurers K.
   Chambers, S. Chastel, T. de Boer, L. Denneau, J. Fairlamb, H. Flewelling,
   M. Huber, C.-C. Lin, E. Magnier, Y. Ramanjooloo, R. Wainscoat, R. Weryk.
   1.8-m Ritchey-Chrétien + CCD.
(I52) Steward Observatory, Mt. Lemmon Station  (N32.442544 W110.788920)
   US/Arizona.  Observers T. A. Pruyne, B. M. Africano, E. J. Christensen, G.
   A. Farneth, D. C. Fuls, A. R. Gibbs, A. D. Grauer, H. Gröller, J. A.
   Johnson, R. A. Kowalski, S. M. Larson, G. J. Leonard, D. Rankin, R. L.
   Seaman, F. C. Shelly, K. W. Wierzchoś. 1.0-m prime focus + CCD.
(Z84) Calar Alto-Schmidt  (N37.224046 W2.548210)  Spain.  Observer F. Ocana.
   Measurers E. Schwab, D. Koschny, M. Micheli. 0.8-m f/3 Schmidt + CCD.

Orbital elements:  P11OiVE
   Perihelion 2024 Jan 11.16100 +/- 0.0205 TT =  3:51:50 (JD 2460320.66100)
Epoch 2023 Nov 29.0 TT = JDT 2460277.5   Earth MOID: 0.0066      AutoNEOCP
M 339.68868134 +/- 0.10             (J2000 ecliptic)
n   0.47059424 +/- 0.00229          Peri.   39.58690 +/- 0.008
a   1.63696089 +/- 0.00532          Node    78.16635 +/- 0.0032
e   0.4480371 +/- 0.00197           Incl.    7.82658 +/- 0.027
P   2.09/764.98d           H 24.73  G  0.15   U  8.7
q 0.90354155 +/- 0.000289    Q 2.37038024 +/- 0.0109
From 11 observations 2023 Nov. 18-29; mean residual 0".10
Residuals in arcseconds: 
231118 F51  .01+  .01-    231119 Z84  .07+  .02+    231121 474  .02-  .26-    
231118 F51  .06-  .07-    231119 Z84  .05+  .09+    231129 I52  .04+  .09+    
231118 F51  .01+  .15+    231121 474  .11+  .02+    231129 I52  .06-  .03-    
231119 Z84  .04+  .22-    231121 474  .05-  .10-    

Ephemerides (geocentric):
Date (UTC) HH   RA             Dec           delta  r     elong  mag " sig PA
---- --------  ------------   ------------  ------ ------ -----  --- --------
2023 11 30 06  02 02 05.968   -17 33 55.97  .06848 1.0298 127.9 20.8 .786 130
2023 11 30 07  02 01 49.117   -17 34 43.47  .06827 1.0296 127.8 20.8 .804 129
2023 11 30 08  02 01 32.167   -17 35 31.07  .06806 1.0294 127.7 20.8 .823 129
2023 11 30 09  02 01 15.117   -17 36 18.76  .06785 1.0291 127.7 20.8 .842 128
2023 11 30 10  02 00 57.966   -17 37 06.54  .06764 1.0289 127.6 20.8 .861 127
2023 11 30 11  02 00 40.713   -17 37 54.42  .06744 1.0287 127.5 20.8 .881 127
2023 11 30 12  02 00 23.357   -17 38 42.39  .06723 1.0285 127.4 20.8 .901 126
2023 11 30 13  02 00 05.898   -17 39 30.46  .06702 1.0283 127.3 20.8 .922 125
2023 11 30 14  01 59 48.335   -17 40 18.63  .06681 1.0280 127.2 20.8 .943 125
2023 11 30 15  01 59 30.665   -17 41 06.89  .06660 1.0278 127.1 20.8 .965 124
2023 11 30 16  01 59 12.890   -17 41 55.25  .06640 1.0276 127.0 20.8 .987 124
2023 11 30 17  01 58 55.007   -17 42 43.70  .06619 1.0274 126.9 20.8 1.01 123
2023 11 30 18  01 58 37.015   -17 43 32.25  .06598 1.0271 126.8 20.7 1.03 122
2023 11 30 19  01 58 18.915   -17 44 20.90  .06577 1.0269 126.7 20.7 1.06 122
2023 11 30 20  01 58 00.703   -17 45 09.64  .06557 1.0267 126.6 20.7 1.08 121
2023 11 30 21  01 57 42.381   -17 45 58.49  .06536 1.0265 126.6 20.7 1.11 121
2023 11 30 22  01 57 23.945   -17 46 47.43  .06515 1.0263 126.5 20.7 1.13 120
2023 11 30 23  01 57 05.397   -17 47 36.46  .06494 1.0260 126.4 20.7 1.16 120
2023 12 01 00  01 56 46.734   -17 48 25.60  .06474 1.0258 126.3 20.7 1.18 119
2023 12 01 01  01 56 27.955   -17 49 14.84  .06453 1.0256 126.2 20.7 1.21 119
2023 12 01 02  01 56 09.059   -17 50 04.17  .06432 1.0254 126.1 20.7 1.24 118
2023 12 01 03  01 55 50.046   -17 50 53.60  .06412 1.0251 126.0 20.7 1.27 118
2023 12 01 04  01 55 30.913   -17 51 43.14  .06391 1.0249 125.9 20.7 1.29 117
2023 12 01 05  01 55 11.661   -17 52 32.77  .06371 1.0247 125.8 20.7 1.32 117
2023 12 01 06  01 54 52.288   -17 53 22.50  .06350 1.0245 125.7 20.7 1.35 116
2023 12 01 07  01 54 32.792   -17 54 12.33  .06329 1.0243 125.6 20.7 1.38 116
2023 12 01 08  01 54 13.172   -17 55 02.26  .06309 1.0240 125.5 20.7 1.41 116
2023 12 01 09  01 53 53.428   -17 55 52.29  .06288 1.0238 125.4 20.7 1.45 115
2023 12 01 10  01 53 33.559   -17 56 42.42  .06268 1.0236 125.3 20.7 1.48 115
2023 12 01 11  01 53 13.562   -17 57 32.65  .06247 1.0234 125.2 20.7 1.51 114
2023 12 01 12  01 52 53.437   -17 58 22.97  .06226 1.0232 125.1 20.7 1.54 114
2023 12 01 13  01 52 33.182   -17 59 13.40  .06206 1.0229 125.0 20.7 1.58 114
2023 12 01 14  01 52 12.797   -18 00 03.93  .06185 1.0227 124.9 20.7 1.61 113
2023 12 01 15  01 51 52.280   -18 00 54.56  .06165 1.0225 124.8 20.7 1.65 113
2023 12 01 16  01 51 31.630   -18 01 45.29  .06144 1.0223 124.7 20.6 1.69 112
2023 12 01 17  01 51 10.845   -18 02 36.11  .06124 1.0221 124.6 20.6 1.72 112
2023 12 01 18  01 50 49.924   -18 03 27.04  .06103 1.0218 124.5 20.6 1.76 112
2023 12 01 19  01 50 28.866   -18 04 18.07  .06083 1.0216 124.4 20.6 1.80 111
2023 12 01 20  01 50 07.669   -18 05 09.19  .06063 1.0214 124.3 20.6 1.84 111
2023 12 01 21  01 49 46.333   -18 06 00.42  .06042 1.0212 124.1 20.6 1.88 111
2023 12 01 22  01 49 24.856   -18 06 51.74  .06022 1.0210 124.0 20.6 1.92 110
2023 12 01 23  01 49 03.235   -18 07 43.16  .06001 1.0207 123.9 20.6 1.96 110
2023 12 02 00  01 48 41.471   -18 08 34.68  .05981 1.0205 123.8 20.6 2.00 110
2023 12 02 01  01 48 19.562   -18 09 26.30  .05961 1.0203 123.7 20.6 2.05 109
2023 12 02 02  01 47 57.506   -18 10 18.02  .05940 1.0201 123.6 20.6 2.09 109
2023 12 02 03  01 47 35.301   -18 11 09.83  .05920 1.0199 123.5 20.6 2.14 109
2023 12 02 04  01 47 12.946   -18 12 01.74  .05900 1.0197 123.4 20.6 2.18 108
2023 12 02 05  01 46 50.441   -18 12 53.75  .05879 1.0194 123.3 20.6 2.23 108